Simultaneous Nadir Overpasses (SNOs) Predictions

Prediction of SNOs near US between AQUA and NPP Satellite Orbit:

Table of predicted SNOs near US for the next 10.0 days since TLE Epoch: 9/12/2015
Index Date (AQUA) Time (AQUA) AQUA Lat,Lon Date (NPP) Time (NPP) NPP Lat,Lon Distance(km) Time Diff (sec)
1 09/13/2015 18:16:55 49.98, -80.17 09/13/2015 18:13:45 49.71, -81.67 111.44 190
2 09/13/2015 19:55:48 49.98,-104.89 09/13/2015 19:55:13 49.60,-107.00 156.66 35
3 09/13/2015 21:29:08 30.08,-123.16 09/13/2015 21:30:58 29.58,-125.58 240.38 110
4 09/16/2015 07:45:36 20.01, -89.53 09/16/2015 07:38:26 19.99, -89.33 21.10 430
5 09/16/2015 09:20:50 33.19,-110.95 09/16/2015 09:16:09 33.27,-111.20 24.74 281
6 09/19/2015 06:30:16 46.43, -65.02 09/19/2015 06:33:37 46.81, -66.97 154.69 201
7 09/19/2015 08:08:10 49.93, -88.35 09/19/2015 08:14:04 50.43, -90.80 182.93 354
8 09/19/2015 09:47:03 49.94,-113.07 09/19/2015 09:55:22 51.11,-115.86 236.40 499
9 09/21/2015 19:06:19 49.98, -92.53 09/21/2015 19:04:18 49.64, -94.30 132.71 121




NCC Satellite Simultaneous Nadir Overpasses (SNOs) Prediction Service
